Погода в Алате

Погода в Алате : погода сейчас, прогноз погоды и архив. Всё, что Вы хотите узнать о погоде в Алате!

Поиск расширенной информации на нашем сайте:

Другие новости

Новости СМИ2

Главная страница сайта

Новости сайта

03.07.2017

Напоминаем, что на нашем специализированном сайте Метеоцентр.Азия вы можете получить высокодетализированные автоматические прогнозы погоды по пунктам России, СНГ и мира в авиационном формате (включающие направление и скорость ветра, видимость, явления погоды, количество и форму облачности, нижнюю и верхнюю границу облачности).

Рекомендуем: Низкая стоимость, фундамент отзывы. Отзывы, лучший фундамент.

Погода в Алате - сегодня

Время (UTC), дата Ветер
(°,м/с) 
Видим.   Явления Облачность Т
(°С)
Тd
(°С)
f(%) Тe
(°С)
Pmin
(гПа)
dP
(гПа)
Po
(мм)
O2
(г/м3)
Тmin Tmax R s Состояние
почвы
15 05.05.17 090 (В) 10 км    8/8 600 м средняя 
[Cu med, cong|Ac trans]
+19.2 +14 72 +27  1013.7  -0.8  762  284           
18 05.05.17 160 (Ю) 4000 м    8/0 средняя 
[Ac und]
+18.8 +13.1 69 +25  1014.7  762  285    +24       
21 05.05.17 180 (Ю) 4000 м    8/0 средняя 
[Ac und]
+18.4 +12 66 +23  1014  -0.6  762  285           
00 06.05.17 230 (ЮЗ) 4000 м    9/0 средняя 
[Ac As]
+19 +10.7 59 +22  1013.6  -0.9  762  285           
03 06.05.17 230 (ЮЗ) 10 км    10/0 средняя 
[As op]
+19.5 +11.8 61 +23  1014.2  0.6  762  284           
06 06.05.17 тихо ()   10 км    10/10 600 м 
[Sc]
+22.5 +8.6 41 +23  1015.2  763  283           
09 06.05.17 тихо ()   10 км  {ливн. осадки}  9/0 средняя 
[Ac As]
+23.9 +4.5 28 +24  1014.6  -0.6  762  282           
12 06.05.17 070 (В) 10 км  {ливн. осадки}  6/0 верхняя 
[Ci ing]
+23.3 +11.4 47 +26  1013.8  -0.8  762  281           
15 06.05.17 110 (В) 10 км    6/0 верхняя 
[Ci fib]
+19.9 +12.6 63 +25  1013.5  -0.2  762  284      900     
18 06.05.17 160 (Ю) 4000 м    3/0 верхняя 
[Ci fib]
+17.4 +11.8 70 +21  1014.7  1.2  762  287    +24.5       
21 06.05.17 180 (Ю) 4000 м    5/0 средняя 
[Ac trans]
+16.4 +10.7 69 +19  1013.1  -1.6  761  287           
00 07.05.17 тихо ()   4000 м    3/0 средняя 
[Ac trans]
+13.9 +10.6 80 +16  1011.4  -1.6  760  289           
03 07.05.17 180 (Ю) 10 км    8/0 верхняя 
[Ci fib]
+16.9 +12 73 +22  1011.7  0.3  760  286           
06 07.05.17 150 (ЮВ) 10 км    ясно 
+23.4 +13.6 54 +29  1011  -0.7  760  279           
12 27.05.17 110 (В) 10 км    ясно 
+21.8 +15.7 68 +31  1010.3  -2  759  280           
18 02.06.17 070 (В) 4000 м    ясно 
+20.7 +16.2 75 +31  1012.1  1.7  761  281    +25.3       
06 05.06.17 360 (С) 10 км    3/0 средняя 
[Ac trans]
+25.5 +11 40 +28  1019.7  0.3  766  280           
12 05.06.17 050 (СВ) 10 км    ясно 
+26.4 +13.1 44 +31  1019  -0.4  766  279           
09 06.07.17 360 (С) 14-16{18}  10 км    5/5 600 м 
[Cu med, cong]
+30.7 +17.6 46 +44    -0.9  761  272           
15 16.07.17 020 (С) 10 км    ясно 
+27.9 +20.8 65 +48  1012.4  0.4  761  273           
15 24.07.17 340 (С) 10 км    6/0 средняя 
[Ac und]
+27.9 +15.8 48 +38  1007.5  -0.2  757  273           
12 26.07.17 360 (С) 10 км    ясно 
+33.6 +15.6 34 +43  1004.6  -0.8  755  268           
00 02.08.17 340 (С) 4000 м    ясно 
+25.3 +18.6 66 +40  1017  764  278           
09 18.08.17 020 (С) 10 км    ясно 
+32.3 +18.1 43 +46  1010.6  -0.3  759  270           
12 20.08.17 020 (С) 10 км    ясно 
+29.7 +21.8 63 +52  1013.8  -0.5  762  271           
Время (UTC), дата Ветер
(°,м/с) 
Видим.   Явления Облачность Т
(°С)
Тd
(°С)
f(%) Тe
(°С)
Pmin
(гПа)
dP
(гПа)
Po
(мм)
O2
(г/м3)
Тmin Tmax R s Состояние
почвы

Для получения пояснительной информации подведите курсор к названию столбца.

ПОГОДА в Алате - архив

Всё, что Вы хотите узнать о погоде в Алате - удобно и подробно!

Выберите нужную дату (начиная с 1 января 2015* года) и нажмите кнопку "Найти".
Будут отображены архивные сводки погоды по пункту Алат, начиная с указанной даты.


Отображать данные в формате CSV (для использования в таблицах Excel)


Внимание! Наш архив погоды предназначен исключительно для личного некоммерческого использования в познавательных целях. Если Вам необходимы официальные справки о состоянии погоды (для производственных, юридических, коммерческих и т.п. целей), обращайтесь в органы Росгидромета.

*Примечание: данная дата относится к архиву по метеостанциям СССР (Россия, СНГ, Балтия).
Архив по метеостанциям Зарубежной Европы и Азии (кроме Китая) хранится 10 дней, по другим регионам земного шара (Китай, Африка, Америка, Австралия, Океания) - 1 день.

Алат - район местоположения метеостанции


Название, широта, долгота, высота метеостанции:
Алат 40°ш. 49.4°д. -16 м над ур. моря [Азербайджан]

Дополнительная информация

В oтличие oт бoльшинства пoгoдных сайтoв мы публикуем пoдрoбную метеoинфoрмацию в детальнoм прoфессиoнальнoм фoрмате.

Характеристики температуры и влажнoсти вoздуха измеряются на высoте 2 м в тени вдали oт зданий и деревьев.
Скoрoсть ветра измеряется на высoте 10 м (на урoвне рoста челoвека скoрoсть ветра ниже в 1.5-2 раза). Если метеoстанция нахoдится в гoрoде или в лесу, тo скoрoсть ветра занижена на 2-4 м/с пo сравнению с oткрытым местoм. Скoрoсть ветра над акватoриями крупных рек и oзёр, а также на вершинах хoлмoв на 2-5 м/с выше, чем в oбычных услoвиях.
Атмoсфернoе давление в разных тoчках местнoсти мoжет значительнo oтличаться oт давления на метеoстанции, в зависимoсти oт услoвий рельефа (при пoдъёме на 10 м давление пoнижается примернo на 1 мм рт.ст.).